Find OneWeb SL0145

NORAD ID: 47260 Int'l Des: 2020-100 Owner: ONEWEB Country: UK Constellation: oneweb operational
LEOCIRCULARPOLARONEWEB_TYPE

Live Position

Loading 3D Globe...

About OneWeb SL0145

Description loading...

Upcoming Passes

Passes for default location (London). Set your location on the main map for personalized predictions.

Altitude History

Loading altitude history...

Two-Line Element Set

1 47260U 20100C 26126.39157507 .00000281 00000-0 74460-3 0 9991
2 47260 87.8982 358.9503 0001932 75.9297 284.2046 13.12445297259246
Epoch: May 6, 2026 • Age: 17 hours

Current Status

Altitude 1215.2 km
Velocity 7.25 km/s
Sub-Earth Point 9.71°N, 105.53°E
Launch Date Dec 18, 2020
Age 5.3 years
Type internet

Technical Details

Classification Payload
Mass 148.00 kg
Dry Mass 140.00 kg
Total Mass 148.00 kg
Length 1.30 m
Diameter 1.00 m
Span 5.00 m
Shape Trapezoid+2 pan
Manufacturer ONEWUS
Bus Type ARROW
Phase Status In Orbit
Owner/State ONEWEB/UK

Most Searched